Location: Saint André
(43.5594°N, 1.3519°W)
Time: 04:37:52
(UTC+00:00)

Cosmos 2100 Rocket - Pass Details

Date: 22 March 2025
Orbit: 956 x 999 km, 82.9° (Epoch: 22 April)

Event Time Altitude Azimuth Distance (km) Brightness Sun altitude
Rises 20:04:47 0° 187° (S) 3,621 6.8 -19.3°
Reaches altitude 10° 20:07:15 10° 187° (S) 2,678 6.2 -19.7°
Maximum altitude 20:13:23 87° 277° (W) 964 3.9 -20.7°
Drops below altitude 10° 20:19:35 10° 7° (N) 2,701 6.5 -21.8°
Sets 20:22:06 0° 8° (N) 3,655 7.2 -22.2°
